This is the latest recevied weather packets stored in our database for station/object OE5RPP. If no packets are shown the sender has not sent any weather packets the latest 10 day(s).
| Time | Temp. | Humidity | Pressure | Rain* | Wind** | Luminosity | Snow |
|---|---|---|---|---|---|---|---|
| 1777617681 | 5.56° C | 39% | 1029.9 hPa | 0 mm | - | - | - |
| 1777617082 | 5° C | 42% | 1029.9 hPa | 0 mm | - | - | - |
| 1777616482 | 4.44° C | 46% | 1029.9 hPa | 0 mm | - | - | - |
| 1777615881 | 4.44° C | 49% | 1029.9 hPa | 0 mm | - | - | - |
| 1777615281 | 2.78° C | 50% | 1029.9 hPa | 0 mm | - | - | - |
| 1777614681 | 2.22° C | 50% | 1029.9 hPa | 0 mm | - | - | - |
| 1777614082 | 1.67° C | 51% | 1029.9 hPa | 0 mm | - | - | - |
| 1777613481 | 1.11° C | 51% | 1029.9 hPa | 0 mm | - | - | - |
| 1777612881 | -0.56° C | 51% | 1029.9 hPa | 0 mm | - | - | - |
| 1777612281 | -1.11° C | 50% | 1029.9 hPa | 0 mm | - | - | - |
| 1777611681 | -1.67° C | 49% | 1029.9 hPa | 0 mm | - | - | - |
| 1777611081 | -2.22° C | 49% | 1029.9 hPa | 0 mm | - | - | - |
| 1777610482 | -2.22° C | 48% | 1029.9 hPa | 0 mm | - | - | - |
| 1777609881 | -2.22° C | 48% | 1029.9 hPa | 0 mm | - | - | - |
| 1777609281 | -2.22° C | 48% | 1029.9 hPa | 0 mm | - | - | - |
| 1777608682 | -2.22° C | 48% | 1029.9 hPa | 0 mm | - | - | - |
| 1777608081 | -2.78° C | 47% | 1029.9 hPa | 0 mm | - | - | - |
| 1777607481 | -2.78° C | 46% | 1029.9 hPa | 0 mm | - | - | - |
| 1777606882 | -2.78° C | 46% | 1029.9 hPa | 0 mm | - | - | - |
| 1777606281 | -2.78° C | 45% | 1029.9 hPa | 0 mm | - | - | - |
| 1777605681 | -2.78° C | 45% | 1029.9 hPa | 0 mm | - | - | - |
| 1777605081 | -2.22° C | 45% | 1029.9 hPa | 0 mm | - | - | - |
| 1777604482 | -2.22° C | 45% | 1029.9 hPa | 0 mm | - | - | - |
| 1777603882 | -2.22° C | 45% | 1029.9 hPa | 0 mm | - | - | - |
| 1777603282 | -2.22° C | 43% | 1028.9 hPa | 0 mm | - | - | - |
* Rain latest hour (hover to see other rain measurements)
** Current wind speed in m/s (hover to see current wind gust speed)